When you browse on this site, cookies collect data to enhance your experience and personalize the content and advertising you see.
Visit our Privacy Policy to learn more. By continuing to use the site, you agree to this use of cookies and data.
  • In Czech Republic
  • List of Countries
  • For 7 days
  • Water Temperature
  • Satellite Maps
  • Weather Map
  • Weather Widgets
  • user-avatar
    Login

    Hourly Weather La-Plata

    Today, 20 January, Sunday

    Time Temperature Precipitation Wind Pressure Humidity
    00:00 +20°C° 0 mm 4 mps 764 mmHg 76%
    01:00 +20°C° 0 mm 4 mps 764 mmHg 77%
    02:00 +20°C° 0 mm 5 mps 763 mmHg 78%
    03:00 +20°C° 0 mm 5 mps 763 mmHg 77%
    04:00 +19°C° 0 mm 5 mps 763 mmHg 75%
    05:00 +19°C° 0 mm 5 mps 763 mmHg 74%
    06:00 +20°C° 0 mm 5 mps 763 mmHg 69%
    07:00 +22°C° 0 mm 5 mps 763 mmHg 64%
    08:00 +23°C° 0 mm 5 mps 764 mmHg 58%
    09:00 +25°C° 0 mm 5 mps 763 mmHg 53%
    10:00 +26°C° 0 mm 4 mps 763 mmHg 48%
    11:00 +27°C° 0 mm 4 mps 763 mmHg 43%
    12:00 +28°C° 0 mm 4 mps 762 mmHg 40%
    13:00 +28°C° 0 mm 4 mps 761 mmHg 37%
    14:00 +29°C° 0 mm 4 mps 761 mmHg 34%
    15:00 +28°C° 0 mm 4 mps 760 mmHg 36%
    16:00 +28°C° 0 mm 4 mps 760 mmHg 38%
    17:00 +28°C° 0 mm 5 mps 759 mmHg 40%
    18:00 +26°C° 0 mm 5 mps 759 mmHg 50%
    19:00 +23°C° 0 mm 4 mps 759 mmHg 60%
    20:00 +22°C° 0 mm 4 mps 759 mmHg 70%
    21:00 +22°C° 0 mm 4 mps 759 mmHg 68%
    22:00 +22°C° 0 mm 5 mps 759 mmHg 65%
    23:00 +22°C° 0 mm 5 mps 760 mmHg 62%

    Tomorrow, 21 January, Monday

    Time Temperature Precipitation Wind Pressure Humidity
    00:00 +22°C° 0 mm 5 mps 760 mmHg 65%
    01:00 +22°C° 0 mm 5 mps 760 mmHg 68%
    02:00 +22°C° 0 mm 5 mps 759 mmHg 71%
    03:00 +21°C° 0 mm 5 mps 759 mmHg 75%
    04:00 +21°C° 0 mm 5 mps 759 mmHg 78%
    05:00 +21°C° 0 mm 4 mps 759 mmHg 82%
    06:00 +22°C° 0 mm 4 mps 759 mmHg 76%
    07:00 +23°C° 0 mm 4 mps 759 mmHg 70%
    08:00 +26°C° 0 mm 4 mps 760 mmHg 64%
    09:00 +27°C° 0 mm 4 mps 759 mmHg 58%
    10:00 +29°C° 0 mm 4 mps 759 mmHg 51%
    11:00 +30°C° 0 mm 4 mps 759 mmHg 45%
    12:00 +32°C° 0 mm 4 mps 758 mmHg 42%
    13:00 +33°C° 0 mm 4 mps 757 mmHg 39%
    14:00 +34°C° 0 mm 4 mps 757 mmHg 36%
    15:00 +34°C° 0 mm 4 mps 757 mmHg 37%
    16:00 +34°C° 0 mm 4 mps 756 mmHg 38%
    17:00 +33°C° 0 mm 4 mps 756 mmHg 39%
    18:00 +32°C° 0 mm 4 mps 756 mmHg 44%
    19:00 +29°C° 0 mm 4 mps 756 mmHg 50%
    20:00 +28°C° 0 mm 4 mps 757 mmHg 56%
    21:00 +28°C° 0 mm 4 mps 757 mmHg 58%
    22:00 +27°C° 0 mm 4 mps 757 mmHg 60%
    23:00 +27°C° 0 mm 4 mps 757 mmHg 62%

    Day after tomorrow, 22 January, Tuesday

    Time Temperature Precipitation Wind Pressure Humidity
    00:00 +27°C° 0 mm 4 mps 757 mmHg 63%
    01:00 +27°C° 0 mm 4 mps 757 mmHg 63%
    02:00 +26°C° 0 mm 5 mps 757 mmHg 64%
    03:00 +26°C° 0 mm 5 mps 757 mmHg 66%
    04:00 +26°C° 0 mm 5 mps 757 mmHg 67%
    05:00 +25°C° 0 mm 5 mps 757 mmHg 68%
    06:00 +27°C° 0 mm 5 mps 757 mmHg 64%
    07:00 +28°C° 0 mm 5 mps 757 mmHg 59%
    08:00 +29°C° 0 mm 5 mps 757 mmHg 54%
    09:00 +32°C° 0 mm 5 mps 757 mmHg 49%
    10:00 +33°C° 0 mm 5 mps 757 mmHg 44%
    11:00 +35°C° 0 mm 5 mps 757 mmHg 38%
    12:00 +35°C° 0 mm 5 mps 756 mmHg 37%
    13:00 +36°C° 0 mm 5 mps 756 mmHg 36%
    14:00 +37°C° 0 mm 5 mps 755 mmHg 34%
    15:00 +36°C° 0 mm 5 mps 755 mmHg 35%
    16:00 +36°C° 0 mm 5 mps 754 mmHg 36%
    17:00 +36°C° 0 mm 5 mps 754 mmHg 37%
    18:00 +35°C° 0 mm 5 mps 754 mmHg 43%
    19:00 +33°C° 0 mm 5 mps 754 mmHg 49%
    20:00 +32°C° 0 mm 4 mps 755 mmHg 55%
    21:00 +30°C° 0 mm 4 mps 755 mmHg 57%
    22:00 +30°C° 0 mm 4 mps 756 mmHg 60%
    23:00 +29°C° 0 mm 4 mps 757 mmHg 62%

    23 January, Wednesday

    Time Temperature Precipitation Wind Pressure Humidity
    00:00 +27°C° 0.1 mm 4 mps 757 mmHg 64%
    01:00 +26°C° 0.1 mm 5 mps 757 mmHg 66%
    02:00 +23°C° 0.1 mm 5 mps 757 mmHg 68%
    03:00 +22°C° 0 mm 5 mps 758 mmHg 70%
    04:00 +22°C° 0 mm 5 mps 758 mmHg 73%
    05:00 +22°C° 0 mm 5 mps 759 mmHg 76%
    06:00 +23°C° 1 mm 5 mps 759 mmHg 74%
    07:00 +25°C° 1 mm 5 mps 760 mmHg 72%
    08:00 +25°C° 1 mm 5 mps 760 mmHg 70%
    09:00 +28°C° 0 mm 6 mps 760 mmHg 60%
    10:00 +30°C° 0 mm 6 mps 760 mmHg 50%
    11:00 +33°C° 0 mm 6 mps 760 mmHg 40%
    12:00 +33°C° 0 mm 7 mps 759 mmHg 39%
    13:00 +33°C° 0 mm 7 mps 759 mmHg 38%
    14:00 +32°C° 0 mm 8 mps 759 mmHg 36%
    15:00 +31°C° 0 mm 8 mps 759 mmHg 39%
    16:00 +29°C° 0 mm 8 mps 759 mmHg 42%
    17:00 +27°C° 0 mm 8 mps 759 mmHg 44%
    18:00 +26°C° 0 mm 8 mps 760 mmHg 49%
    19:00 +24°C° 0 mm 8 mps 760 mmHg 53%
    20:00 +22°C° 0 mm 8 mps 761 mmHg 57%
    21:00 +22°C° 0 mm 8 mps 761 mmHg 60%
    22:00 +22°C° 0 mm 7 mps 761 mmHg 64%
    23:00 +22°C° 0 mm 7 mps 761 mmHg 67%

    24 January, Thursday

    Time Temperature Precipitation Wind Pressure Humidity
    00:00 +22°C° 0 mm 7 mps 760 mmHg 70%
    01:00 +23°C° 0 mm 7 mps 760 mmHg 72%
    02:00 +23°C° 0 mm 7 mps 760 mmHg 75%
    03:00 +23°C° 0 mm 7 mps 760 mmHg 75%
    04:00 +22°C° 0 mm 7 mps 760 mmHg 76%
    05:00 +22°C° 0 mm 7 mps 760 mmHg 76%
    06:00 +23°C° 0 mm 7 mps 761 mmHg 72%
    07:00 +24°C° 0 mm 7 mps 761 mmHg 67%
    08:00 +26°C° 0 mm 7 mps 762 mmHg 63%
    09:00 +27°C° 0 mm 7 mps 761 mmHg 58%
    10:00 +28°C° 0 mm 7 mps 761 mmHg 53%
    11:00 +30°C° 0 mm 6 mps 760 mmHg 49%
    12:00 +32°C° 0 mm 6 mps 760 mmHg 46%
    13:00 +33°C° 0 mm 6 mps 759 mmHg 43%
    14:00 +34°C° 0 mm 6 mps 758 mmHg 41%
    15:00 +34°C° 0 mm 6 mps 758 mmHg 41%
    16:00 +34°C° 0 mm 6 mps 757 mmHg 42%
    17:00 +34°C° 0 mm 7 mps 757 mmHg 43%
    18:00 +33°C° 0 mm 7 mps 757 mmHg 48%
    19:00 +32°C° 0 mm 7 mps 756 mmHg 54%
    20:00 +30°C° 0 mm 7 mps 756 mmHg 59%
    21:00 +29°C° 0 mm 7 mps 756 mmHg 62%
    22:00 +29°C° 0 mm 7 mps 756 mmHg 65%
    23:00 +28°C° 0 mm 8 mps 756 mmHg 69%

    25 January, Friday

    Time Temperature Precipitation Wind Pressure Humidity
    00:00 +27°C° 0 mm 8 mps 755 mmHg 69%
    01:00 +27°C° 0 mm 8 mps 755 mmHg 70%
    02:00 +26°C° 0 mm 8 mps 754 mmHg 71%
    03:00 +26°C° 0 mm 9 mps 754 mmHg 72%
    04:00 +26°C° 0 mm 9 mps 754 mmHg 72%
    05:00 +26°C° 0 mm 9 mps 754 mmHg 73%
    06:00 +24°C° 2.5 mm 7 mps 754 mmHg 77%
    07:00 +25°C° 2.5 mm 5 mps 754 mmHg 81%
    08:00 +25°C° 2.5 mm 3 mps 755 mmHg 85%
    09:00 +25°C° 5.6 mm 4 mps 755 mmHg 86%
    10:00 +25°C° 5.6 mm 5 mps 755 mmHg 87%
    11:00 +25°C° 5.6 mm 5 mps 755 mmHg 87%
    12:00 +26°C° 0 mm 5 mps 755 mmHg 86%
    13:00 +27°C° 0 mm 5 mps 754 mmHg 84%
    14:00 +28°C° 0 mm 4 mps 754 mmHg 82%
    15:00 +28°C° 0 mm 4 mps 755 mmHg 81%
    16:00 +28°C° 0 mm 3 mps 755 mmHg 81%
    17:00 +28°C° 0 mm 3 mps 755 mmHg 80%
    18:00 +28°C° 0 mm 4 mps 756 mmHg 80%
    19:00 +27°C° 0 mm 4 mps 757 mmHg 80%
    20:00 +27°C° 0 mm 5 mps 758 mmHg 79%
    21:00 +24°C° 0 mm 6 mps 759 mmHg 73%
    22:00 +22°C° 0 mm 8 mps 760 mmHg 66%
    23:00 +19°C° 0 mm 9 mps 760 mmHg 59%
    Show more